This demonstration page uses our WeatherBlox Daily Observations layout. Learn more.

38.89511, -77.03637

Hourly Observations for January 21, 2018

Temp ( °F °C ) Dew Point ( °F °C ) Humidity (%) Winds ( mph kmh ) Pressure ( in mb ) Visibility ( mi km ) Precip ( " mm )
12:52 am 00:52 Clear 37 2.8 31 -0.6 79 79 N 8 13 30.11 1020 10 16.0934 0 0
1:52 am 01:52 Clear 38 3.3 32 0 79 79 WSW 3 6 30.12 1020 10 16.0934 0 0
2:52 am 02:52 Clear 36 2.2 31 -0.6 82 82 Calm 30.14 1021 10 16.0934 0 0
3:52 am 03:52 Mostly Clear 34 1.1 31 -0.6 89 89 Calm 30.13 1020 10 16.0934 0 0
4:52 am 04:52 Mostly Clear 34 1.1 32 0 92 92 Calm 30.16 1021 10 16.0934 0 0
5:52 am 05:52 Mostly Clear 34 1.1 32 0 92 92 S 5 7 30.17 1022 10 16.0934 0 0
6:52 am 06:52 Mostly Cloudy 35 1.7 32 0 89 89 S 7 11 30.19 1022 10 16.0934 0 0
7:52 am 07:52 Cloudy 37 2.8 33 0.6 86 86 S 8 13 30.19 1022 10 16.0934 0 0
8:52 am 08:52 Cloudy 38 3.3 33 0.6 83 83 S 5 7 30.22 1023 10 16.0934 0 0
9:52 am 09:52 Cloudy 43 6.1 35 1.7 74 74 Calm 30.23 1024 10 16.0934 0 0
10:52 am 10:52 Cloudy 45 7.2 34 1.1 66 66 Calm 30.23 1024 10 16.0934 0 0
11:52 am 11:52 Cloudy 49 9.4 34 1.1 56 56 Calm 30.21 1023 10 16.0934 0 0
12:52 pm 12:52 Mostly Cloudy 56 13.3 36 2.2 47 47 VRB 3 6 30.17 1022 10 16.0934 0 0
1:52 pm 13:52 Partly Cloudy 59 15 37 2.8 44 44 S 8 13 30.15 1021 10 16.0934 0 0
2:52 pm 14:52 Cloudy 60 15.6 39 3.9 46 46 S 6 9 30.14 1021 10 16.0934 0 0
3:52 pm 15:52 Cloudy 57 13.9 39 3.9 51 51 S 8 13 30.14 1021 10 16.0934 0 0
4:52 pm 16:52 Cloudy 57 13.9 40 4.4 53 53 S 5 7 30.14 1021 10 16.0934 0 0
5:52 pm 17:52 Cloudy 54 12.2 40 4.4 59 59 SSE 5 7 30.14 1021 10 16.0934 0 0
6:52 pm 18:52 Mostly Cloudy 56 13.3 39 3.9 53 53 S 7 11 30.15 1021 10 16.0934 0 0
7:52 pm 19:52 Partly Cloudy 50 10 37 2.8 61 61 S 7 11 30.14 1021 10 16.0934 0 0
8:52 pm 20:52 Partly Cloudy 52 11.1 38 3.3 59 59 VRB 5 7 30.15 1021 10 16.0934 0 0
9:52 pm 21:52 Cloudy 51 10.6 38 3.3 61 61 S 12 19 30.15 1021 10 16.0934 0 0
10:52 pm 22:52 Mostly Cloudy 48 8.9 37 2.8 66 66 S 10 17 30.15 1021 10 16.0934 0 0
11:52 pm 23:52 Cloudy 52 11.1 39 3.9 61 61 S 9 15 30.15 1021 10 16.0934 0 0

Powered by AerisWeather